When you browse on this site, cookies collect data to enhance your experience and personalize the content and advertising you see.
Visit our Privacy Policy to learn more. By continuing to use the site, you agree to this use of cookies and data.
  • In Latvia
  • List of Countries
  • For 7 days
  • Water Temperature
  • Satellite Maps
  • Weather Map
  • Weather Widgets
  • user-avatar
    Login

    Hourly Weather Nikola Bor

    Today, 26 March, Tuesday

    Time Temperature Precipitation Wind Pressure Humidity
    00:00 -3°C° 0 mm 2 mps 738 mmHg 83%
    01:00 -3°C° 0 mm 2 mps 737 mmHg 84%
    02:00 -2°C° 0 mm 1 mps 737 mmHg 86%
    03:00 -4°C° 0 mm 2 mps 737 mmHg 87%
    04:00 -5°C° 0 mm 2 mps 737 mmHg 88%
    05:00 -5°C° 0 mm 2 mps 736 mmHg 90%
    06:00 -4°C° 0.1 mm 2 mps 736 mmHg 90%
    07:00 -2°C° 0.1 mm 2 mps 737 mmHg 89%
    08:00 -1°C° 0 mm 2 mps 736 mmHg 89%
    09:00 0°C° 0.2 mm 3 mps 737 mmHg 88%
    10:00 0°C° 0.2 mm 3 mps 737 mmHg 87%
    11:00 +1°C° 0.2 mm 3 mps 737 mmHg 85%
    12:00 0°C° 0.1 mm 4 mps 737 mmHg 81%
    13:00 0°C° 0.1 mm 4 mps 737 mmHg 77%
    14:00 0°C° 0.1 mm 4 mps 738 mmHg 73%
    15:00 0°C° 0 mm 3 mps 738 mmHg 74%
    16:00 0°C° 0 mm 3 mps 738 mmHg 75%
    17:00 -1°C° 0 mm 2 mps 738 mmHg 76%
    18:00 -2°C° 0 mm 2 mps 739 mmHg 80%
    19:00 -3°C° 0 mm 2 mps 739 mmHg 84%
    20:00 -5°C° 0 mm 2 mps 739 mmHg 88%
    21:00 -5°C° 0 mm 2 mps 740 mmHg 89%
    22:00 -5°C° 0 mm 2 mps 740 mmHg 89%
    23:00 -6°C° 0 mm 2 mps 740 mmHg 90%

    Tomorrow, 27 March, Wednesday

    Time Temperature Precipitation Wind Pressure Humidity
    00:00 -6°C° 0 mm 2 mps 741 mmHg 90%
    01:00 -6°C° 0 mm 2 mps 741 mmHg 90%
    02:00 -7°C° 0 mm 3 mps 741 mmHg 90%
    03:00 -7°C° 0 mm 3 mps 741 mmHg 90%
    04:00 -6°C° 0 mm 3 mps 742 mmHg 90%
    05:00 -6°C° 0 mm 3 mps 742 mmHg 91%
    06:00 -5°C° 0.1 mm 4 mps 743 mmHg 88%
    07:00 -4°C° 0.1 mm 4 mps 743 mmHg 85%
    08:00 -4°C° 0.1 mm 5 mps 744 mmHg 83%
    09:00 -4°C° 0.1 mm 5 mps 744 mmHg 81%
    10:00 -4°C° 0.1 mm 5 mps 745 mmHg 80%
    11:00 -2°C° 0.1 mm 5 mps 746 mmHg 78%
    12:00 -2°C° 0.1 mm 5 mps 746 mmHg 78%
    13:00 -2°C° 0.1 mm 5 mps 747 mmHg 77%
    14:00 -2°C° 0.1 mm 5 mps 747 mmHg 76%
    15:00 -2°C° 0.1 mm 4 mps 748 mmHg 77%
    16:00 -2°C° 0.1 mm 4 mps 748 mmHg 77%
    17:00 -2°C° 0.1 mm 4 mps 748 mmHg 77%
    18:00 -3°C° 0 mm 4 mps 749 mmHg 80%
    19:00 -4°C° 0 mm 3 mps 750 mmHg 83%
    20:00 -4°C° 0 mm 3 mps 750 mmHg 85%
    21:00 -5°C° 0 mm 3 mps 751 mmHg 87%
    22:00 -6°C° 0 mm 3 mps 751 mmHg 89%
    23:00 -5°C° 0 mm 2 mps 751 mmHg 91%

    Day after tomorrow, 28 March, Thursday

    Time Temperature Precipitation Wind Pressure Humidity
    00:00 -6°C° 0 mm 2 mps 751 mmHg 91%
    01:00 -6°C° 0 mm 2 mps 752 mmHg 91%
    02:00 -7°C° 0 mm 2 mps 752 mmHg 92%
    03:00 -7°C° 0 mm 2 mps 752 mmHg 92%
    04:00 -7°C° 0 mm 2 mps 752 mmHg 93%
    05:00 -7°C° 0 mm 2 mps 753 mmHg 93%
    06:00 -6°C° 0 mm 2 mps 753 mmHg 88%
    07:00 -5°C° 0 mm 2 mps 753 mmHg 83%
    08:00 -3°C° 0 mm 2 mps 753 mmHg 78%
    09:00 -2°C° 0 mm 2 mps 753 mmHg 73%
    10:00 -1°C° 0 mm 2 mps 753 mmHg 68%
    11:00 +2°C° 0 mm 2 mps 753 mmHg 63%
    12:00 +2°C° 0 mm 2 mps 753 mmHg 64%
    13:00 +2°C° 0 mm 3 mps 753 mmHg 64%
    14:00 +3°C° 0 mm 3 mps 753 mmHg 65%
    15:00 +3°C° 0 mm 2 mps 752 mmHg 70%
    16:00 +3°C° 0 mm 2 mps 752 mmHg 75%
    17:00 +2°C° 0 mm 2 mps 752 mmHg 80%
    18:00 +2°C° 0 mm 2 mps 752 mmHg 84%
    19:00 +1°C° 0 mm 2 mps 752 mmHg 88%
    20:00 -1°C° 0 mm 2 mps 751 mmHg 92%
    21:00 -1°C° 0.1 mm 2 mps 751 mmHg 91%
    22:00 +1°C° 0.1 mm 2 mps 751 mmHg 89%
    23:00 0°C° 0.1 mm 3 mps 750 mmHg 88%

    29 March, Friday

    Time Temperature Precipitation Wind Pressure Humidity
    00:00 0°C° 0.2 mm 3 mps 750 mmHg 88%
    01:00 +1°C° 0.2 mm 3 mps 750 mmHg 89%
    02:00 +1°C° 0.2 mm 3 mps 749 mmHg 89%
    03:00 +1°C° 0 mm 3 mps 749 mmHg 91%
    04:00 +1°C° 0 mm 3 mps 749 mmHg 92%
    05:00 +1°C° 0 mm 3 mps 749 mmHg 93%
    06:00 +1°C° 0 mm 3 mps 749 mmHg 92%
    07:00 +2°C° 0 mm 3 mps 750 mmHg 91%
    08:00 +2°C° 0 mm 3 mps 750 mmHg 90%
    09:00 +3°C° 0 mm 3 mps 750 mmHg 88%
    10:00 +4°C° 0 mm 3 mps 750 mmHg 86%
    11:00 +5°C° 0 mm 3 mps 750 mmHg 84%
    12:00 +7°C° 0 mm 3 mps 749 mmHg 81%
    13:00 +7°C° 0 mm 4 mps 749 mmHg 78%
    14:00 +8°C° 0 mm 4 mps 748 mmHg 75%
    15:00 +8°C° 0 mm 3 mps 748 mmHg 79%
    16:00 +7°C° 0 mm 3 mps 748 mmHg 82%
    17:00 +7°C° 0 mm 3 mps 747 mmHg 86%
    18:00 +5°C° 0 mm 3 mps 747 mmHg 87%
    19:00 +4°C° 0 mm 3 mps 747 mmHg 88%
    20:00 +3°C° 0 mm 3 mps 747 mmHg 89%
    21:00 +3°C° 0 mm 3 mps 747 mmHg 90%
    22:00 +3°C° 0 mm 3 mps 746 mmHg 90%
    23:00 +3°C° 0 mm 3 mps 746 mmHg 91%

    30 March, Saturday

    Time Temperature Precipitation Wind Pressure Humidity
    00:00 +3°C° 0 mm 3 mps 746 mmHg 92%
    01:00 +2°C° 0 mm 3 mps 746 mmHg 93%
    02:00 +2°C° 0 mm 3 mps 745 mmHg 94%
    03:00 +2°C° 0 mm 3 mps 745 mmHg 94%
    04:00 +2°C° 0 mm 3 mps 745 mmHg 94%
    05:00 +2°C° 0 mm 3 mps 745 mmHg 94%
    06:00 +1°C° 0 mm 4 mps 745 mmHg 92%
    07:00 +3°C° 0 mm 4 mps 744 mmHg 90%
    08:00 +3°C° 0 mm 5 mps 744 mmHg 88%
    09:00 +5°C° 0 mm 5 mps 744 mmHg 85%
    10:00 +6°C° 0 mm 5 mps 744 mmHg 82%
    11:00 +7°C° 0 mm 5 mps 744 mmHg 79%
    12:00 +8°C° 0 mm 5 mps 744 mmHg 75%
    13:00 +9°C° 0 mm 5 mps 744 mmHg 71%
    14:00 +10°C° 0 mm 5 mps 744 mmHg 67%
    15:00 +10°C° 0 mm 4 mps 743 mmHg 68%
    16:00 +10°C° 0 mm 4 mps 743 mmHg 70%
    17:00 +9°C° 0 mm 3 mps 743 mmHg 72%
    18:00 +8°C° 0 mm 3 mps 743 mmHg 74%
    19:00 +7°C° 0 mm 3 mps 744 mmHg 76%
    20:00 +5°C° 0 mm 3 mps 744 mmHg 78%
    21:00 +5°C° 0 mm 3 mps 744 mmHg 79%
    22:00 +5°C° 0 mm 3 mps 744 mmHg 81%
    23:00 +4°C° 0 mm 3 mps 744 mmHg 82%

    31 March, Sunday

    Time Temperature Precipitation Wind Pressure Humidity
    00:00 +4°C° 0 mm 3 mps 744 mmHg 84%
    01:00 +3°C° 0 mm 3 mps 744 mmHg 87%
    02:00 +3°C° 0 mm 3 mps 743 mmHg 90%
    03:00 +2°C° 0 mm 3 mps 743 mmHg 90%
    04:00 +2°C° 0 mm 3 mps 743 mmHg 91%
    05:00 +2°C° 0 mm 3 mps 743 mmHg 92%
    06:00 +3°C° 0 mm 3 mps 743 mmHg 88%
    07:00 +4°C° 0 mm 4 mps 743 mmHg 84%
    08:00 +5°C° 0 mm 4 mps 743 mmHg 80%
    09:00 +5°C° 0 mm 4 mps 743 mmHg 79%
    10:00 +6°C° 0 mm 4 mps 743 mmHg 78%
    11:00 +6°C° 0 mm 4 mps 743 mmHg 78%
    12:00 +6°C° 0.1 mm 4 mps 743 mmHg 73%
    13:00 +7°C° 0.1 mm 5 mps 744 mmHg 68%
    14:00 +7°C° 0.1 mm 5 mps 744 mmHg 63%
    15:00 +7°C° 0.1 mm 4 mps 744 mmHg 63%
    16:00 +7°C° 0.1 mm 3 mps 745 mmHg 63%
    17:00 +5°C° 0.1 mm 3 mps 746 mmHg 63%
    18:00 +5°C° 0 mm 2 mps 746 mmHg 65%
    19:00 +3°C° 0 mm 2 mps 747 mmHg 66%
    20:00 +1°C° 0 mm 2 mps 748 mmHg 67%
    21:00 +1°C° 0 mm 2 mps 749 mmHg 70%
    22:00 -1°C° 0 mm 2 mps 749 mmHg 72%
    23:00 -2°C° 0 mm 2 mps 750 mmHg 75%
    Show more